Regional Weather Roundup
Issued by NWS

Home | Current Version | Previous Version | Graphics & Text | Print | Product List | Glossary On
Versions: 1 2 3 4 5 6 7 8 9 10 11 12 13 14 15 16 17 18 19 20 21 22 23 24 25 26 27 28 29 30 31 32 33 34 35 36 37 38 39 40 41 42 43 44 45 46 47 48 49 50
531
ASUS43 KIND 232209
RWRIN

WEATHER ROUNDUP FOR INDIANA
NATIONAL WEATHER SERVICE INDIANAPOLIS IN
500 PM EST THU FEB 23 2017

NOTE: "FAIR" INDICATES FEW OR NO CLOUDS BELOW 12,000 FEET WITH NO
SIGNIFICANT WEATHER AND/OR OBSTRUCTIONS TO VISIBILITY.

* - STATION DOES NOT REPORT WEATHER SUCH AS PRECIPITATION OR FOG.

+ - STATION NOT QUALITY CONTROLLED BY THE NATIONAL WEATHER SERVICE.
    USE DATA WITH CAUTION...ESPECIALLY DEWPOINT AND RELATIVE
    HUMIDITY OBSERVATIONS.

INZ001>003-010>013-019-020-232300-
NORTHWEST INDIANA

CITY           SKY/WX    TMP DP  RH WIND       PRES   REMARKS
GARY /AIRPORT/ CLOUDY    41  36  81 N12G23    29.82S
KNOX *+        CLOUDY    46  23  39 N10       29.77S
LA PORTE +     CLOUDY    41  37  86 N8        29.79S
MICHIGAN CITY+ CLOUDY    37  36  93 N9        29.81S
MONTICELLO +   CLOUDY    56  46  68 NE7       29.73F
RENSSELAER +   CLOUDY    48  43  81 N12       29.75S
VALPARAISO     CLOUDY    43  38  82 N13G18    29.77F

$$

LMZ046-743>745-232300-
SOUTHERN LAKE MICHIGAN

STATION/POSITION TIME  TEMP    WIND        PRES    WAVE
                       AIR SEA DIR/SP/G            HT
                 (UTC) (F)     (DEG/KT/KT) (MB)    (FT)
BURNS HARBOR     2140   38      50/ 11/ 12 1010.2F
MICHIGAN CITY    2140   36      20/ 10/ 10   N/A

$$

INZ004-005-014>016-021>024-232300-
NORTH CENTRAL INDIANA

CITY           SKY/WX    TMP DP  RH WIND       PRES   REMARKS
ELKHART        SUNNY     48  41  76 N5        29.77F
GOSHEN         PTSUNNY   53  42  66 N9        29.76F
LOGANSPORT +   CLOUDY    61  48  63 CALM      29.73F
PERU/GRISSOM   PTSUNNY   61  55  81 E6        29.71F
ROCHESTER +    CLOUDY    57  46  67 N7        29.75F
SOUTH BEND     CLOUDY    44  38  79 N10       29.77F
WARSAW +       PTSUNNY   55  45  67 N5        29.76S

$$

INZ006>009-017-018-025>027-232300-
NORTHEAST INDIANA

CITY           SKY/WX    TMP DP  RH WIND       PRES   REMARKS
ANGOLA *+      SUNNY     55  46  71 N5        29.76S
AUBURN +       PTSUNNY   63  45  51 CALM      29.77R
FORT WAYNE     CLOUDY    63  51  65 S9        29.75S
HUNTINGTON +   CLOUDY    61  53  73 S6        29.75F
KENDALLVILLE + PTSUNNY   58  47  67 N6        29.76S

$$

INZ028-029-035-036-043>045-051>053-232300-
WEST CENTRAL INDIANA

CITY           SKY/WX    TMP DP  RH WIND       PRES   REMARKS
LAFAYETTE      CLOUDY    59  50  72 NE8       29.71F
TERRE HAUTE    CLOUDY    69  54  58 S13       29.69S

$$

INZ030>032-037>040-046>048-054>057-064-065-232300-
CENTRAL INDIANA

CITY           SKY/WX    TMP DP  RH WIND       PRES   REMARKS
CP ATTERBURY + CLOUDY    68  54  60 S6        29.73F
FISHERS *+     CLOUDY    64  57  77 CALM      29.72
FRANKFORT +    PTSUNNY   64  57  78 NE6       29.74S
GREENWOOD *+   PTSUNNY   69  55  59 SW10      29.73F
INDIANAPOLIS   CLOUDY    68  54  60 SW6       29.71F
-EAGLE CREEK   CLOUDY    68  54  60 CALM      29.70F
KOKOMO +       CLOUDY    60  54  80 E7        29.73F
MARION +       CLOUDY    60  55  82 N5        29.75F
MT COMFORT *+  CLOUDY    64  55  72 NE3       29.73F
SHELBYVILLE    CLOUDY    68  54  60 S14       29.73S
ZIONSVILLE +   CLOUDY    64  55  73 NE5       29.72F

$$

INZ033-034-041-042-049-050-058-059-232300-
EAST CENTRAL INDIANA

CITY           SKY/WX    TMP DP  RH WIND       PRES   REMARKS
MUNCIE         CLOUDY    64  55  72 CALM      29.75S

$$

INZ060-061-067>069-081>083-085>088-232300-
SOUTHWEST INDIANA

CITY           SKY/WX    TMP DP  RH WIND       PRES   REMARKS
EVANSVILLE     CLOUDY    71  53  52 S10       29.69F
HUNTINGBURG *+ PTSUNNY   69  56  62 S12       29.71F
WASHINGTON +   CLOUDY    68  54  61 SW5       29.70S

$$

INZ062-063-066-070>080-084-089>092-232300-
SOUTH CENTRAL AND SOUTHEAST INDIANA

CITY           SKY/WX    TMP DP  RH WIND       PRES   REMARKS
BEDFORD +      CLOUDY   N/A N/A N/A SE3       29.72S
BLOOMINGTON    CLOUDY    67  53  61 SW10      29.71F
MADISON *+     CLOUDY    66  54  63 S7        29.77F
NORTH VERNON + CLOUDY    68  55  64 S6        29.75S

$$





USA.gov is the U.S. government's official web portal to all federal, state and local government web resources and services.